TimeAKDT,TemperatureF,Dew PointF,Humidity,Sea Level PressureIn,VisibilityMPH,Wind Direction,Wind SpeedMPH,Gust SpeedMPH,PrecipitationIn,Events,Conditions,WindDirDegrees,DateUTC
12:16 AM,23.0,19.4,86,30.16,10.0,Calm,Calm,-,N/A,,Partly Cloudy,0,2013-10-26 08:16:00
12:36 AM,21.2,17.6,86,30.17,10.0,Calm,Calm,-,N/A,,Clear,0,2013-10-26 08:36:00
12:56 AM,21.2,17.6,86,30.17,10.0,Calm,Calm,-,N/A,,Partly Cloudy,0,2013-10-26 08:56:00
1:16 AM,21.2,15.8,80,30.18,10.0,Calm,Calm,-,N/A,,Clear,0,2013-10-26 09:16:00
1:36 AM,21.2,15.8,80,30.18,10.0,Calm,Calm,-,N/A,,Clear,0,2013-10-26 09:36:00
1:56 AM,17.6,12.2,79,30.19,10.0,Calm,Calm,-,N/A,,Clear,0,2013-10-26 09:56:00
2:16 AM,17.6,12.2,79,30.20,10.0,Calm,Calm,-,N/A,,Clear,0,2013-10-26 10:16:00
3:16 AM,19.4,15.8,86,30.21,10.0,Calm,Calm,-,N/A,,Clear,0,2013-10-26 11:16:00
3:36 AM,19.4,15.8,86,30.22,10.0,Calm,Calm,-,N/A,,Clear,0,2013-10-26 11:36:00
3:56 AM,19.4,15.8,86,30.23,10.0,Calm,Calm,-,N/A,,Clear,0,2013-10-26 11:56:00
4:16 AM,19.4,15.8,86,30.24,10.0,Calm,Calm,-,N/A,,Clear,0,2013-10-26 12:16:00
4:36 AM,17.6,14.0,86,30.24,10.0,Calm,Calm,-,N/A,,Clear,0,2013-10-26 12:36:00
4:56 AM,17.6,15.8,93,30.24,10.0,Calm,Calm,-,N/A,,Clear,0,2013-10-26 12:56:00
5:16 AM,17.6,12.2,79,30.25,10.0,Calm,Calm,-,N/A,,Clear,0,2013-10-26 13:16:00
5:36 AM,17.6,14.0,86,30.26,10.0,Calm,Calm,-,N/A,,Clear,0,2013-10-26 13:36:00
5:56 AM,19.4,14.0,80,30.27,10.0,SW,3.5,-,N/A,,Mostly Cloudy,230,2013-10-26 13:56:00
6:16 AM,17.6,14.0,86,30.28,10.0,SSW,3.5,-,N/A,,Overcast,210,2013-10-26 14:16:00
6:36 AM,17.6,14.0,86,30.29,8.0,SW,4.6,-,N/A,,Overcast,220,2013-10-26 14:36:00
6:56 AM,17.6,15.8,93,30.29,0.8,SW,3.5,-,N/A,,Overcast,220,2013-10-26 14:56:00
7:16 AM,19.4,15.8,86,30.30,0.5,West,3.5,-,N/A,,Overcast,260,2013-10-26 15:16:00
7:36 AM,19.4,15.8,86,30.31,0.5,SW,3.5,-,N/A,,Overcast,220,2013-10-26 15:36:00
7:56 AM,19.4,15.8,86,30.32,0.8,Calm,Calm,-,N/A,,Overcast,0,2013-10-26 15:56:00
8:16 AM,19.4,15.8,86,30.32,1.8,Calm,Calm,-,N/A,,Overcast,0,2013-10-26 16:16:00
8:36 AM,19.4,15.8,86,30.33,2.5,Calm,Calm,-,N/A,,Overcast,0,2013-10-26 16:36:00
8:56 AM,19.4,15.8,86,30.33,4.0,Calm,Calm,-,N/A,,Overcast,0,2013-10-26 16:56:00
9:16 AM,19.4,15.8,86,30.34,5.0,Calm,Calm,-,N/A,,Overcast,0,2013-10-26 17:16:00
9:36 AM,19.4,15.8,86,30.35,10.0,SSW,3.5,-,N/A,,Mostly Cloudy,210,2013-10-26 17:36:00
9:56 AM,19.4,15.8,86,30.35,10.0,Calm,Calm,-,N/A,,Overcast,0,2013-10-26 17:56:00
10:16 AM,19.4,17.6,93,30.36,10.0,Calm,Calm,-,N/A,,Overcast,0,2013-10-26 18:16:00
10:23 AM,19.4,17.6,93,30.37,10.0,Variable,3.5,-,N/A,,Scattered Clouds,0,2013-10-26 18:23:00
10:36 AM,19.4,17.6,93,30.37,10.0,Calm,Calm,-,N/A,,Scattered Clouds,0,2013-10-26 18:36:00
10:56 AM,19.4,17.6,93,30.37,10.0,Calm,Calm,-,N/A,,Scattered Clouds,0,2013-10-26 18:56:00
11:16 AM,21.2,17.6,86,30.38,10.0,Calm,Calm,-,N/A,,Scattered Clouds,0,2013-10-26 19:16:00
11:36 AM,21.2,17.6,86,30.39,10.0,Calm,Calm,-,N/A,,Scattered Clouds,0,2013-10-26 19:36:00
11:56 AM,21.2,17.6,86,30.40,10.0,Calm,Calm,-,N/A,,Scattered Clouds,0,2013-10-26 19:56:00
12:36 PM,21.2,17.6,86,30.41,10.0,Calm,Calm,-,N/A,,Scattered Clouds,0,2013-10-26 20:36:00
12:56 PM,21.2,17.6,86,30.42,10.0,Calm,Calm,-,N/A,,Scattered Clouds,0,2013-10-26 20:56:00
1:16 PM,21.2,19.4,93,30.43,10.0,Calm,Calm,-,N/A,,Scattered Clouds,0,2013-10-26 21:16:00
1:36 PM,23.0,19.4,86,30.43,10.0,Calm,Calm,-,N/A,,Scattered Clouds,0,2013-10-26 21:36:00
1:56 PM,23.0,19.4,86,30.44,10.0,Calm,Calm,-,N/A,,Scattered Clouds,0,2013-10-26 21:56:00
2:16 PM,23.0,19.4,86,30.44,10.0,Calm,Calm,-,N/A,,Scattered Clouds,0,2013-10-26 22:16:00
2:36 PM,24.8,21.2,86,30.44,10.0,Calm,Calm,-,N/A,,Scattered Clouds,0,2013-10-26 22:36:00
2:56 PM,24.8,21.2,86,30.45,10.0,Calm,Calm,-,N/A,,Scattered Clouds,0,2013-10-26 22:56:00
3:16 PM,24.8,21.2,86,30.45,10.0,Calm,Calm,-,N/A,,Scattered Clouds,0,2013-10-26 23:16:00
3:36 PM,24.8,21.2,86,30.46,10.0,Calm,Calm,-,N/A,,Scattered Clouds,0,2013-10-26 23:36:00
3:56 PM,24.8,21.2,86,30.46,10.0,Calm,Calm,-,N/A,,Scattered Clouds,0,2013-10-26 23:56:00
4:16 PM,24.8,21.2,86,30.46,10.0,Calm,Calm,-,N/A,,Scattered Clouds,0,2013-10-27 00:16:00
4:36 PM,24.8,21.2,86,30.45,10.0,Calm,Calm,-,N/A,,Scattered Clouds,0,2013-10-27 00:36:00
4:56 PM,24.8,21.2,86,30.46,10.0,Calm,Calm,-,N/A,,Scattered Clouds,0,2013-10-27 00:56:00
5:16 PM,24.8,19.4,80,30.46,10.0,Calm,Calm,-,N/A,,Partly Cloudy,0,2013-10-27 01:16:00
5:36 PM,23.0,19.4,86,30.47,10.0,Calm,Calm,-,N/A,,Clear,0,2013-10-27 01:36:00
5:56 PM,21.2,17.6,86,30.47,10.0,Calm,Calm,-,N/A,,Clear,0,2013-10-27 01:56:00
6:16 PM,21.2,17.6,86,30.47,10.0,Calm,Calm,-,N/A,,Clear,0,2013-10-27 02:16:00
6:36 PM,19.4,15.8,86,30.47,10.0,Calm,Calm,-,N/A,,Partly Cloudy,0,2013-10-27 02:36:00
6:56 PM,21.2,17.6,86,30.48,10.0,Calm,Calm,-,N/A,,Partly Cloudy,0,2013-10-27 02:56:00
7:16 PM,21.2,19.4,93,30.48,0.2,Calm,Calm,-,N/A,,Overcast,0,2013-10-27 03:16:00
7:36 PM,23.0,19.4,86,30.49,0.5,Calm,Calm,-,N/A,,Overcast,0,2013-10-27 03:36:00
7:56 PM,24.8,21.2,86,30.50,0.8,NE,4.6,-,N/A,,Overcast,40,2013-10-27 03:56:00
8:16 PM,23.0,19.4,86,30.50,0.8,NE,3.5,-,N/A,,Overcast,50,2013-10-27 04:16:00
8:36 PM,24.8,21.2,86,30.50,0.5,NE,3.5,-,N/A,,Overcast,40,2013-10-27 04:36:00
8:56 PM,24.8,21.2,86,30.51,0.5,Calm,Calm,-,N/A,,Overcast,0,2013-10-27 04:56:00
9:16 PM,23.0,19.4,86,30.50,0.5,NE,3.5,-,N/A,,Overcast,50,2013-10-27 05:16:00
9:36 PM,23.0,19.4,86,30.49,1.0,ENE,3.5,-,N/A,,Overcast,60,2013-10-27 05:36:00
9:56 PM,23.0,19.4,86,30.50,0.8,NE,4.6,-,N/A,,Overcast,50,2013-10-27 05:56:00
10:16 PM,21.2,19.4,93,30.49,1.0,ENE,3.5,-,N/A,,Overcast,60,2013-10-27 06:16:00
10:36 PM,21.2,19.4,93,30.50,0.8,NNE,3.5,-,N/A,,Overcast,30,2013-10-27 06:36:00
10:56 PM,21.2,17.6,86,30.48,0.8,NE,4.6,-,N/A,,Overcast,40,2013-10-27 06:56:00
11:16 PM,21.2,17.6,86,30.48,1.0,NE,5.8,-,N/A,,Overcast,50,2013-10-27 07:16:00
11:36 PM,21.2,17.6,86,30.47,1.2,ENE,4.6,-,N/A,,Overcast,60,2013-10-27 07:36:00
11:56 PM,21.2,17.6,86,30.47,1.5,ENE,3.5,-,N/A,,Overcast,70,2013-10-27 07:56:00